User: anonymous   Login
Location: Peterborough
(44.3091°N, 78.3197°W)
Time: 09:19:14
(UTC-04:00)
Language:

S-56A Canister/Altair - Orbit

View from above orbital plane
View from above orbital plane
View from above satellite
View from above satellite

Ground track
Ground track

The orbit data is extracted from the following two-line orbital elements,

1 00082U 61004B   24205.82551807  .00001276  00000-0  11108-2 0  9999
2 00082  38.8547  53.6565 1164720 111.3422 261.5436 12.26854204991619
Epoch (UTC): 23 July 2024 19:48:44
Eccentricity: 0.1164720
inclination: 38.8547°
perigee height: 638 km
apogee height: 2488 km
right ascension of ascending node: 53.6565°
argument of perigee: 111.3422°
revolutions per day: 12.26854204
mean anomaly at epoch: 261.5436°
orbit number at epoch: 99161

The dashed part of the orbit path shows where the satellite is in the earth's shadow,  

DLR